Regional Weather Roundup
Issued by NWS Newport/Morehead, NC

Current Version | Previous Version | Text Only | Print | Product List | Glossary On
Versions: 1 2 3 4 5 6 7 8 9 10 11 12 13 14 15 16 17 18 19 20 21 22 23 24 25 26 27 28 29 30 31 32 33 34 35 36 37 38 39 40 41 42 43 44 45 46 47 48 49 50
000
ASUS42 KMHX 241014
RWRMHX
WEATHER ROUNDUP FOR EASTERN NORTH CAROLINA
NATIONAL WEATHER SERVICE NEWPORT/MOREHEAD CITY NC
600 AM EDT WED MAY 24 2017

NOTE: "FAIR" INDICATES FEW OR NO CLOUDS BELOW 12,000 FEET
WITH NO SIGNIFICANT WEATHER AND/OR OBSTRUCTIONS TO VISIBILITY

NCZ015>017-031-032-045>047-102-103-241100-
NORTH COAST

CITY           SKY/WX    TMP DP  RH WIND       PRES   REMARKS
EDENTON        CLOUDY    65  63  94 CALM      29.65S FOG
ELIZABETH CITY CLOUDY    63  63 100 N7        29.65R
KITTY HAWK     CLOUDY    69  69 100 CALM      29.62S
MANTEO         CLOUDY    68  67  96 W7        29.64S

$$

NCZ045>047-081-094-103-104-241100-
CENTRAL COAST

CITY           SKY/WX    TMP DP  RH WIND       PRES   REMARKS
FRISCO         NOT AVBL

$$

NCZ095-097-098-100-101-241100-
SOUTHERN COAST

CITY           SKY/WX    TMP DP  RH WIND       PRES   REMARKS
BEAUFORT       CLOUDY    71  69  93 W9        29.66R
CEDAR ISLAND   NOT AVBL
JACKSONVILLE   NOT AVBL
PINEY ISLAND   NOT AVBL
WILMINGTON     CLOUDY    69  68  96 W8        29.67S


$$

NCZ011>013-027>030-043-044-078>080-089-090>093-098-241100-
COASTAL PLAIN

CITY           SKY/WX    TMP DP  RH WIND       PRES   REMARKS
AHOSKIE          N/A     61  61  99 CALM      29.67R FOG
CLINTON        CLOUDY    66  66 100 CALM      29.68R
ELIZABETHTOWN  CLOUDY    68  68 100 CALM      29.67S
GOLDSBORO      CLOUDY    67  67 100 SW5       29.65R
GREENVILLE     CLOUDY    66  66 100 SW3       29.68S
HAVELOCK       CLOUDY    69  66  90 SW8       29.68R
KENANSVILLE    CLOUDY    66  66 100 W6        29.67S
KINSTON        CLOUDY    67  66  99 CALM      29.66S
NEW BERN       CLOUDY    68  67  96 SW5       29.67R
RICHLANDS      CLOUDY    68  67  96 SW6       29.68R
ROCKY MOUNT    CLOUDY    64  64 100 N3        29.66S FOG
WASHINGTON     CLOUDY    66  66  98 W3        29.65S
WHITEVILLE     CLOUDY    69  67  94 CALM      29.67S

$$

AMZ130-135-150-152-154-156-158-170-250-252-270-ANZ085-086-088-633-658-670-241100-
MARINE OBSERVATIONS

STATION/POSITION TIME  TEMP    WIND        PRES    WAVE   SWELL
                       AIR SEA DIR/SP/G            HT/PER HT/PER
                 (UTC) (F)     (DEG/KT/KT) (MB)    (FT/S) (FT/S)
CHESAPEAKE LIGHT NOT AVBL
64 E VA BEACH    0950   63 64  280/  8/ 10 1003.7    5/ 7   5/ 7
DUCK             0948   64 61  350/  7/  8 1003.0
2 E DUCK         0900      64                N/A     3/ 5   2/11
OREGON INLET     0942   70 71  260/  7/ 14 1003.3
13E OREGON INLT  0948      65                N/A     6/ 8   5/ 8
HATTERAS CG      0948   71 73  230/  7/ 12 1003.7
DIAMOND BUOY     0950   74 75  220/ 19/ 23 1004.0    7/ 6   2/15
CAPE LOOKOUT     1000   72     280/ 13/ 15 1004.0
BEAUFORT LAB     0948   71 72  260/  5/  7 1003.8
30 SE NEW RVR IN 0908   73 76  280/ 17/ 21 1004.6
30 SE NEW RVR IN 0943      76                N/A     7/ 8
27 SE WRIGHTSVLE 0908   74 75  250/ 14/ 19 1004.2
5 SE WRIGHTSVLE  0908   71 74  270/ 10/ 16 1004.6
225 S CAPE HAT   0950   77 76  200/ 23/ 29 1009.8    8/ 7   2/11
41 SE CHARLESTON 0950   75 77  220/ 25/ 31 1005.0    9/ 7

$$




USA.gov is the U.S. government's official web portal to all federal, state and local government web resources and services.